Regional Weather Roundup
Issued by NWS

Home | Current Version | Previous Version | Text Only | Print | Product List | Glossary Off
Versions: 1 2 3 4 5 6 7 8 9 10 11 12 13 14 15 16 17 18 19 20 21 22 23 24 25 26 27 28 29 30 31 32 33 34 35 36 37 38 39 40 41 42 43 44 45 46 47 48 49 50

000
ASUS45 KBOU 200107
RWRCO

WEATHER ROUNDUP FOR COLORADO
NATIONAL WEATHER SERVICE DENVER/BOULDER CO
700 PM MDT SUN OCT 19 2014

NOTE: "FAIR" INDICATES FEW OR NO CLOUDS BELOW 12000 FEET WITH NO
SIGNIFICANT WEATHER AND/OR OBSTRUCTIONS TO VISIBILITY.

COZ001>005-013-030-031-200200-
...NORTHWEST COLORADO...

CITY           SKY/WX    TMP DP  RH WIND       PRES   REMARKS
CRAIG          CLEAR     51  35  54 SW5       30.13R
HAYDEN         CLEAR     59  28  31 SW6       30.15R
MEEKER         CLEAR     56  37  49 NE5       30.13R
MOUNT WERNER   NOT AVBL
STEAMBOAT SPGS CLEAR     58  29  33 CALM      30.16R
WALDEN         PTCLDY    50  25  37 NE10      30.24R
$$

COZ006>008-011-200200-
...WEST CENTRAL VALLEYS...

CITY           SKY/WX    TMP DP  RH WIND       PRES   REMARKS
GRAND JUNCTION CLEAR     64  34  32 NW6       30.03R
MONTROSE       CLEAR     62  40  44 CALM      30.10R
EAGLE          NOT AVBL
RIFLE          PTCLDY    63  35  35 S3        30.07R
DELTA          CLEAR     71  35  27 W6        30.05R
NUCLA          CLOUDY    64  36  34 CALM      30.14R
$$

COZ017>023-064>068-200200-
...SOUTHWEST COLORADO...

CITY           SKY/WX    TMP DP  RH WIND       PRES   REMARKS
DURANGO        TSTM      50  47  89 S5        30.25R FOG
CORTEZ         MOCLDY    55  48  77 CALM      30.16R
PAGOSA SPRINGS RAIN      49  47  93 NE6       30.30R
TELLURIDE      PTCLDY    52  34  50 SE5       30.30R
WOLF CREEK PAS CLOUDY    32  32 100 SW10      30.45R WCI  24
$$

COZ009-010-012-014-032>034-037-058>063-200200-
...CENTRAL COLORADO...

CITY           SKY/WX    TMP DP  RH WIND       PRES   REMARKS
ASPEN          PTCLDY    55  34  45 SE9       30.23R
BUENA VISTA    CLOUDY    54  34  48 W9        30.25R
COPPER MTN     MOCLDY    41  32  70 SE3       30.47R
BERTHOUD PASS  FAIR      32  30  93 E16       30.50S WCI  21
COTTONWOOD PAS CLOUDY    52  32  46 CALM      30.35R
GUNNISON       PTCLDY    55  30  38 NW3       30.23R
KREMMLING      PTCLDY    54  28  37 S8          N/A
LEADVILLE      CLOUDY    46  31  55 N7        30.34R
SALIDA         MOCLDY    59  33  37 E3        30.29R
SUNLIGHT       CLOUDY    46  32  57 CALM      30.40R
WILKERSON PASS NOT AVBL
$$

COZ069>075-200200-
...SAN LUIS VALLEY/SANGRE DE CRISTO MOUNTAINS...

CITY           SKY/WX    TMP DP  RH WIND       PRES   REMARKS
ALAMOSA        CLOUDY    56  35  45 E15G22    30.20R
LA VETA PASS   PTCLDY    45  32  61 NE10      30.37R
SAGUACHE       CLOUDY    59  32  36 E12       30.22R
$$

COZ035-036-038>040-200200-
...NORTHERN COLORADO FRONT RANGE...

CITY           SKY/WX    TMP DP  RH WIND       PRES   REMARKS
DENVER INTL AP PTCLDY    60  35  39 SE6       30.12R
DMNS CITY PARK   N/A     61  34  36 E3        30.12R
AURORA         PTCLDY    57  35  43 SE7       30.14R
FRONT RANGE AP CLEAR     61  36  39 SE6       30.13S HAZE
ERIE MUNI ARPT CLEAR     57  37  46 CALM      30.11R
BOULDER MUN AP CLEAR     61  36  39 W3        30.12R
CENTENNIAL     PTCLDY    58  33  39 E5        30.15R
BROOMFIELD     PTCLDY    68  30  24 CALM      30.14R
FORT COLLINS   CLEAR     66  34  30 E6        30.11R
LONGMONT       CLEAR     57  38  50 W8        30.13R
$$

COZ041-046-047-076>085-087-088-200200-
...PIKES PEAK/PALMER DIVIDE AND SOUTHERN FOOTHILLS...

CITY           SKY/WX    TMP DP  RH WIND       PRES   REMARKS
COLO. SPRINGS  PTCLDY    60  32  34 E9        30.17R
A. F. ACADEMY  CLEAR     57  34  41 NW6       30.18
ELLICOTT       NOT AVBL
FALCON         CLEAR     53  32  44 N6        30.22R
FORT CARSON    PTCLDY    61  32  33 E6        30.14R
LIMON          CLEAR     54  36  50 NE7       30.13R
MONUMENT HILL  CLEAR     50  32  50 E6        30.21R
TRINIDAD       CLEAR     57  40  52 NW7       30.15R
$$

COZ042>045-048>051-090-091-200200-
...NORTHEAST COLORADO...

CITY           SKY/WX    TMP DP  RH WIND       PRES   REMARKS
GREELEY ARPT   CLEAR     61  36  39 E3        30.10R
AKRON          CLEAR     60  39  45 E6        30.09R
BURLINGTON     CLEAR     59  38  45 E7        30.08R
WRAY           CLEAR     62  35  36 E5        30.06R
STERLING       CLEAR     63  43  48 NE5       30.06R
HOLYOKE        CLEAR     54  39  58 E3        30.06R
FORT MORGAN    CLEAR     58  35  42 NE6       30.10R
$$

COZ086-089-092>099-200200-
...SOUTHEAST COLORADO...

CITY           SKY/WX    TMP DP  RH WIND       PRES   REMARKS
PUEBLO         CLEAR     64  35  34 E7        30.07R
LA JUNTA       CLEAR     66  41  40 SE6       30.05R
LAMAR          CLEAR     61  45  55 E7        30.01R
SPRINGFIELD      N/A     57  42  57 NE9       30.06R
$$



USA.gov is the U.S. government's official web portal to all federal, state and local government web resources and services.